Weather History for Val Marie Southeast, SK

Change the Weather History Date:

Tuesday, November 6, 2012

  Actual Average Record
Temperature  
Mean Temperature 36 °F -  
Max Temperature 51 °F - - ()
Min Temperature 20 °F - - ()
Degree Days  
Heating Degree Days 30    
Moisture  
Dew Point 25 °F    
Average Humidity 65    
Maximum Humidity 92    
Minimum Humidity 21    
Precipitation  
Precipitation 0.01 in - - ()
Sea Level Pressure  
Sea Level Pressure 30.17 in    
Wind  
Wind Speed 6 mph ()    
Max Wind Speed 12 mph    
Max Gust Speed -    
T = Trace of Precipitation, MM = Missing Value Source: Averaged Metar Reports

Daily Weather History Graph

Daily Weather History Graph

Search for Another Location

Airport:

Trip Planner

Search our weather history database for the weather conditions in past years. The results will help you decide how hot, cold, wet, or windy it might be!

Date:

Astronomy

Nov. 06, 2012 Rise Set
Actual Time 8:06 AM CST 5:40 PM CST
Civil Twilight 7:32 AM CST 6:14 PM CST
Nautical Twilight 6:54 AM CST 6:52 PM CST
Astronomical Twilight 6:17 AM CST 7:29 PM CST
Moon No Moon Rise 1:55 PM CST (11/6)
Length of Visible Light 10h 41m
Length of Day
9h 33m
Waning Gibbous, 53% of the Moon is Illuminated
Nov 6
Waning Gibbous
Nov 6
Last Quarter
Nov 13
New
Nov 20
First Quarter
Nov 28
Full

Hourly Weather History & Observations

Time (CST) Temp. Windchill Dew Point Humidity Pressure Visibility Wind Dir Wind Speed Gust Speed Precip Events Conditions
12:00 AM 31 °F - 28 °F 85% 30.15 in - West 10.4 mph - -  
12:00 AM 31.5 °F 22.9 °F 28.2 °F 88% 30.15 in - West 10.4 mph - N/A   Unknown
1:00 AM 31.3 °F 22.1 °F 28.2 °F 88% 30.17 in - WNW 11.5 mph - N/A   Unknown
2:00 AM 31.6 °F 22.6 °F 27.7 °F 85% 30.18 in - WNW 11.5 mph - N/A   Unknown
3:00 AM 28 °F - 25 °F 84% 30.21 in - SSW 2.3 mph - -  
3:00 AM 28.4 °F - 25.2 °F 88% 30.21 in - SSW 2.3 mph - N/A   Unknown
4:00 AM 29.5 °F 25.9 °F 25.9 °F 86% 30.22 in - NNE 3.5 mph - N/A   Unknown
5:00 AM 30.7 °F - 25.7 °F 82% 30.23 in - NW 2.3 mph - N/A   Unknown
6:00 AM 27 °F - 22 °F 74% 30.25 in - NW 6.9 mph - -  
6:00 AM 27.0 °F 19.5 °F 21.9 °F 81% 30.25 in - NW 6.9 mph - N/A   Unknown
7:00 AM 26.1 °F - 21.7 °F 84% 30.26 in - Calm Calm - N/A   Unknown
8:00 AM 24.1 °F 18.2 °F 22.1 °F 92% 30.29 in - SSW 4.6 mph - N/A   Unknown
9:00 AM 29 °F - 25 °F 80% 30.28 in - South 4.6 mph - -  
9:00 AM 28.6 °F 23.5 °F 25.3 °F 88% 30.28 in - South 4.6 mph - N/A   Unknown
10:00 AM 31.6 °F - 27.0 °F 83% 30.27 in - SW 2.3 mph - 0.01 in   Unknown
11:00 AM 37.4 °F 34.9 °F 28.9 °F 71% 30.25 in - SSW 3.5 mph - N/A   Unknown
12:00 PM 44 °F - 23 °F 31% 30.22 in - WNW 4.6 mph - -  
12:00 PM 43.5 °F 40.9 °F 23.2 °F 45% 30.22 in - WNW 4.6 mph - N/A   Unknown
1:00 PM 46.8 °F - 19.6 °F 34% 30.19 in - West 3.5 mph - N/A   Unknown
2:00 PM 49.6 °F - 22.1 °F 34% 30.17 in - SSW 6.9 mph - N/A   Unknown
3:00 PM 51 °F - 23 °F 21% 30.15 in - SW 5.8 mph - -  
3:00 PM 50.7 °F - 23.4 °F 34% 30.15 in - SW 5.8 mph - N/A   Unknown
4:00 PM 49.1 °F - 23.5 °F 37% 30.13 in - SSW 8.1 mph - N/A   Unknown
5:00 PM 48.2 °F - 25.2 °F 41% 30.12 in - South 8.1 mph - N/A   Unknown
6:00 PM 43 °F - 26 °F 37% 30.10 in - SSE 8.1 mph - -  
6:00 PM 42.6 °F 37.8 °F 25.5 °F 51% 30.10 in - SSE 8.1 mph - N/A   Unknown
7:00 PM 36.9 °F 30.7 °F 25.9 °F 64% 30.09 in - SE 8.1 mph - N/A   Unknown
8:00 PM 36.9 °F 30.7 °F 26.6 °F 66% 30.06 in - ESE 8.1 mph - N/A   Unknown
9:00 PM 37 °F - 27 °F 55% 30.01 in - ESE 10.4 mph - -  
9:00 PM 36.9 °F 29.6 °F 26.6 °F 66% 30.01 in - ESE 10.4 mph - N/A   Unknown
10:00 PM 38.5 °F 31.6 °F 26.8 °F 63% 29.98 in - ESE 10.4 mph - N/A   Unknown
11:00 PM 41.0 °F 34.3 °F 25.9 °F 55% 29.94 in - SE 11.5 mph - N/A   Unknown